OBJECT E

Satellite information

Favourite Embed

Satellite Type and Status

UNKNOWNIN ORBIT

Key statistics

Satellite OBJECT E at a glance.

Uptime

2528

Days in orbit

Revolutions

≈ 12.8

Per day

Orbit

LEO

Low Earth Orbit

Inclination

82.5

Latest

Satellite identification and parameters

Extended collection of information and parameters for OBJECT E.

Object identification

Identified? True

Debris? False

Object name: OBJECT E

International designator: 2018-097E

Object number (NORAD): 43755

Object ID (CCSDS): 43755

Country: COMMONWEALTH OF INDEPENDENT STATES (CIS)

Current information (Y/N): Y

RCS size: SMALL

Orbital parameters

Period: 112.421 minutes

Inclination: 82.5133 deg

SMA: 7715.98 km

Apoapsis: 1505.477 km

Periapsis: 1170.213 km

RAAN: 248.6634 deg

Eccentricy: 0.0217253

Argument of periapsis: 110.7511 deg

Mean anomaly: 251.7018 deg

Mean motion: 12.80902733 rev/day

Mean motion (dot): 0.00000057 rev/day2

B* drag term: 0.00017092 1/REarth

Two-line elements (TLE)

Creation date: Oct. 31, 2025, 10:56 p.m.

Reference frame: TEME

Reference center: EARTH

Epoch: Oct. 31, 2025, 9:47 p.m. UTC

TLE line 0: 0 OBJECT E

TLE line 1: 1 43755U 18097E 25304.90786698 .00000057 00000-0 17092-3 0 9990

TLE line 2: 2 43755 82.5133 248.6634 0217253 110.7511 251.7018 12.80902733323385

Live tracking on map

Real-time ground track for satellite OBJECT E.

In-orbit conjunctions

There are no conjunctions computed for OBJECT E, at the moment. Check back to stay up to date, as we update our databases every day.

Go to all conjunctions

Associated space launch

Rodnik is a series of military communications satellites.

OBJECT E was lifted into orbit during the mission ‘Rokot / Briz-KM | 3 x Rodnik (Kosmos 2530, 2531, 2532)’, on board a Rokot/Briz-KM space rocket.

The launch took place on Nov. 30, 2018, 2:27 a.m. from 133/3 (133L).

For more information about the launch, click the button.

Launch to space Rokot / Briz-KM | 3 x Rodnik (Kosmos 2530, 2531, 2532)
Rokot / Briz-KM | 3 x Rodnik (Kosmos 2530, 2531, 2532)

Agency: N/A

Status: Launch Successful

Launch date: Nov. 30, 2018, 2:27 a.m. UTC

Rocket: Rokot/Briz-KM

Launch pad: 133/3 (133L)

Location: Plesetsk Cosmodrome, Russian Federation

...

Latest news about this satellite

There are no fresh news available about this satellite. Check back as we update our databases every day.


Newsletter sign-up

Weekly statistics, charts and insights to help you stay on top of the space industry.